Wind_Speed
49 44 40 37 34 32 31 32 31 31 31 33 37 41 45 48 53 58 63 66 64 62 62 62 64 70 77 82 83 84 84 85 85 85 83 82 81 81 81 81 83 84 84 83 80 69 61 66 67 66 69 68 66 64 63 63 63 61 57 52 49 47 46 44 42 41 44 46 40 36 35 33 29 24 21 22 26 31 36 38 38 35 34 33 31 30
47 42 38 35 31 28 28 29 29 29 29 30 33 37 42 45 49 53 58 63 62 62 63 62 60 64 73 80 84 86 87 87 88 88 86 85 84 82 81 82 82 85 85 83 83 74 64 66 68 65 68 69 67 66 64 65 65 63 59 54 49 48 47 45 43 42 45 46 42 37 33 31 29 24 22 23 25 29 36 39 39 38 35 34 33 32
44 42 38 35 31 27 24 25 26 27 27 28 31 34 39 43 46 50 55 60 61 62 65 64 61 62 68 76 82 85 87 88 89 90 90 88 87 85 82 82 83 85 86 83 83 80 71 68 69 67 68 69 68 67 66 66 65 63 61 56 49 48 48 46 45 45 46 46 44 40 34 30 31 27 24 23 24 29 37 40 41 39 37 35 35 35
42 41 38 34 30 27 23 22 23 24 25 27 29 32 36 40 43 48 53 56 58 59 63 64 62 63 66 72 78 84 88 90 92 93 93 93 91 88 84 82 84 85 85 83 83 83 77 72 71 69 68 70 68 67 67 67 65 63 63 58 49 47 47 45 46 47 47 48 46 40 34 31 32 31 25 23 26 31 39 43 43 42 40 39 38 37
41 40 38 33 29 27 24 22 21 20 22 24 26 28 32 36 41 46 50 51 53 55 58 61 62 64 67 71 76 81 86 90 93 94 94 95 93 90 87 83 84 85 84 83 83 84 82 76 73 70 69 69 68 68 69 68 66 65 65 60 50 47 46 46 48 48 47 49 47 40 34 32 34 35 30 26 29 35 42 47 48 46 43 42 42 40
39 37 35 31 27 26 24 22 20 18 19 21 23 26 29 33 38 43 46 48 50 52 54 58 61 65 68 70 73 76 81 85 88 90 90 92 92 90 87 84 83 83 82 82 82 83 84 81 74 70 69 69 69 70 71 70 68 66 65 61 51 47 47 47 49 48 46 48 49 42 36 36 39 41 37 31 32 37 44 51 52 50 46 44 43 42
37 35 33 29 25 24 23 21 19 17 17 18 21 23 26 30 35 39 43 45 47 49 51 55 59 62 66 70 72 72 73 77 82 85 88 90 91 89 87 85 84 82 81 82 82 82 84 82 76 71 71 70 70 71 72 71 68 65 64 60 52 48 48 50 50 47 45 48 50 45 40 41 43 45 42 35 33 36 42 48 53 54 50 45 43 41
35 32 31 28 25 23 21 19 18 16 15 16 18 21 24 28 31 35 39 42 44 46 49 52 53 56 62 65 65 66 67 70 75 79 83 87 89 89 87 87 85 81 80 80 80 81 81 80 78 74 71 71 70 71 72 69 66 64 63 58 53 50 51 52 50 47 47 50 52 48 47 47 47 49 45 36 32 35 38 43 50 55 54 49 43 40
33 30 27 25 23 21 19 16 14 13 13 14 15 18 22 25 28 31 35 37 40 43 46 48 49 51 53 53 56 60 64 66 68 70 76 83 87 88 87 86 85 81 78 78 78 78 77 77 79 76 71 70 69 70 71 68 65 64 62 59 54 52 54 54 48 46 49 51 52 52 51 51 50 50 45 36 33 34 36 40 47 54 56 54 48 43
32 29 25 23 21 18 16 14 11 9 10 12 13 16 19 22 25 27 30 32 35 39 42 43 44 45 44 44 47 53 57 61 63 63 68 74 79 83 83 82 84 82 78 76 75 75 75 75 77 76 72 70 69 69 71 69 67 66 63 60 56 55 57 54 48 46 49 51 52 54 53 51 49 47 42 36 33 33 34 37 43 49 55 56 52 48
31 29 26 22 20 16 13 11 9 7 7 9 11 13 16 19 21 23 26 28 32 35 36 37 39 40 38 38 40 45 49 54 57 59 60 63 68 73 74 72 78 81 75 73 72 71 73 73 75 75 72 72 70 69 70 69 68 67 64 60 57 57 59 55 49 46 48 50 52 53 52 49 47 44 38 34 32 31 33 35 38 43 48 52 53 50
29 28 26 22 19 16 13 10 8 6 6 7 9 10 13 15 17 19 22 24 28 30 32 34 35 35 34 33 35 39 44 48 52 56 59 61 61 61 61 64 73 75 68 67 70 70 70 70 72 73 72 72 70 67 67 66 65 63 61 60 58 58 59 56 50 45 45 50 51 50 50 48 45 41 35 32 30 30 32 34 35 38 41 44 48 50
27 27 26 22 18 16 13 11 9 7 6 6 7 7 8 11 13 16 18 20 23 26 29 31 30 31 31 32 33 36 42 44 44 48 57 63 61 58 58 63 71 72 61 58 64 68 68 68 68 69 71 74 73 71 69 66 63 59 56 56 55 55 59 59 53 47 45 49 51 49 48 47 44 38 34 30 28 28 31 34 35 37 38 39 42 46
26 27 25 22 18 15 13 12 10 7 6 6 5 4 6 8 9 12 14 17 21 24 25 25 26 29 31 32 34 36 41 42 39 42 50 56 61 66 67 62 63 71 68 60 63 67 68 70 70 68 72 78 78 76 74 70 65 58 54 55 54 56 62 66 64 57 50 51 54 52 50 49 44 38 36 31 27 28 31 33 35 37 39 40 41 44
25 26 25 24 21 17 14 12 10 7 5 5 4 2 4 6 7 9 11 15 18 21 22 23 26 30 31 34 37 39 42 42 40 41 45 51 62 73 75 63 57 71 78 70 70 75 71 68 71 73 77 82 82 80 77 72 65 57 55 58 58 60 66 71 72 65 57 55 56 56 54 52 46 40 38 34 30 31 31 31 34 36 38 41 42 45
26 26 25 24 22 18 15 12 10 7 5 5 3 1 3 5 7 8 11 15 17 19 22 26 30 33 34 36 39 42 42 40 40 43 46 53 64 74 79 69 58 69 83 77 73 80 78 72 71 76 82 86 87 86 81 76 69 61 63 68 65 62 64 71 76 70 62 59 57 57 56 54 49 42 38 36 35 34 32 32 33 34 36 39 41 44
26 27 26 25 23 19 15 13 10 8 6 5 3 2 5 6 7 9 12 16 18 20 25 31 35 37 38 39 42 44 41 39 40 43 48 54 63 70 76 74 63 66 83 85 77 78 82 81 76 76 84 89 90 89 85 81 76 66 69 75 70 64 63 70 77 73 66 62 58 57 56 55 50 44 40 38 35 33 32 32 32 33 35 37 40 43
25 27 27 26 24 21 17 14 11 8 7 6 4 2 5 7 7 9 13 16 18 22 28 33 37 40 42 43 43 44 41 40 41 43 47 52 56 63 71 76 72 70 81 86 82 79 81 84 83 80 83 88 91 92 89 87 82 72 72 77 75 71 69 71 74 73 69 62 57 56 56 55 52 47 45 40 34 32 34 34 35 36 36 37 39 40
24 26 26 25 24 21 18 14 11 8 7 6 3 1 4 6 6 8 14 17 18 25 31 35 39 41 43 44 46 45 43 43 42 43 47 50 53 60 69 76 76 73 78 84 84 84 83 85 86 84 84 87 91 94 92 90 88 80 75 76 77 76 75 74 76 77 73 63 56 55 56 56 53 50 49 44 37 34 36 37 38 37 37 37 36 35
23 26 26 25 23 21 18 15 12 9 7 6 4 1 2 5 6 8 13 16 18 26 33 35 39 41 41 42 44 45 45 46 46 45 49 52 56 64 70 76 76 74 79 86 86 85 86 88 89 88 86 88 92 96 95 93 91 86 80 76 75 76 78 80 82 82 77 67 59 56 55 55 54 53 52 48 42 39 40 41 41 40 39 38 36 36
22 25 26 25 23 21 19 16 14 10 8 8 6 3 2 5 8 9 13 15 17 25 33 36 38 40 40 40 40 39 41 46 48 48 50 54 61 68 72 74 76 73 77 86 90 87 86 89 92 92 89 90 94 96 96 94 91 88 86 81 77 75 79 83 86 85 82 75 67 60 56 56 56 56 56 52 46 44 44 45 45 44 41 39 38 41
21 24 25 25 23 22 20 18 16 12 9 9 8 6 4 5 8 10 13 15 15 20 27 32 35 38 38 38 38 37 39 44 48 49 50 53 59 67 71 72 72 71 73 82 90 93 90 89 93 94 93 93 97 98 97 95 93 90 89 88 83 79 78 83 86 86 84 80 75 66 59 58 58 59 59 56 51 50 49 50 50 47 44 42 43 45
20 23 24 24 23 23 22 21 18 14 11 10 11 10 8 7 9 12 15 17 16 18 22 25 31 35 36 36 36 35 35 36 39 43 46 49 54 61 66 68 67 69 71 77 86 93 94 93 94 95 95 95 99 100 98 97 96 93 90 90 89 84 79 78 80 81 82 81 77 70 62 60 61 61 62 60 57 55 55 55 54 51 48 46 48 49
20 23 23 22 23 24 24 24 21 17 14 14 15 14 12 11 11 13 16 17 17 20 23 24 27 31 33 34 32 28 25 24 25 29 36 43 48 53 58 62 62 64 68 73 81 88 92 95 96 95 95 96 100 101 99 98 96 94 91 90 91 90 83 76 73 75 79 80 77 70 63 62 64 64 65 64 61 59 59 59 57 55 52 51 52 52
19 22 22 21 21 22 24 25 24 22 20 20 20 19 17 15 13 12 13 15 15 18 22 26 28 30 31 31 28 23 20 20 21 22 28 36 42 45 49 54 57 60 63 68 75 82 88 92 95 98 97 97 101 101 98 98 95 92 92 91 90 92 88 80 74 72 76 78 74 68 64 63 65 66 67 66 64 62 62 61 60 58 57 55 56 56
18 20 20 20 20 20 21 23 25 25 25 25 24 22 20 18 17 15 14 13 12 13 14 18 22 25 25 24 24 22 20 18 19 20 23 29 36 41 44 48 52 56 59 62 69 77 84 87 92 98 99 99 102 103 99 98 96 92 92 92 92 93 90 85 79 73 71 70 67 64 63 65 67 68 69 69 67 66 66 64 62 62 61 60 59 58
17 18 19 19 19 19 20 21 23 24 26 26 26 25 24 22 20 19 18 16 13 11 9 9 11 13 15 15 16 17 17 15 16 17 19 23 29 35 40 45 50 55 58 59 64 72 80 84 87 94 98 99 102 103 99 97 97 95 92 91 94 95 90 86 83 78 70 65 62 63 65 67 69 69 71 71 70 70 69 68 65 64 63 61 60 59
14 16 18 19 19 19 20 21 22 22 24 25 25 25 25 24 24 22 21 20 18 16 15 13 12 12 11 11 10 10 11 11 12 15 18 22 26 31 36 42 47 52 56 58 61 66 74 80 84 88 94 98 102 103 99 97 98 97 92 90 94 96 92 87 86 83 74 66 62 64 68 70 71 71 73 75 74 73 72 71 70 67 63 61 60 60
12 14 17 19 19 19 20 21 22 22 22 23 23 23 24 24 24 24 23 22 21 19 18 16 15 14 13 11 10 9 9 9 10 12 16 19 23 27 32 38 43 49 54 57 59 62 67 74 79 85 90 96 100 102 100 98 97 95 92 90 93 96 94 88 87 86 80 71 67 68 71 73 73 73 75 77 77 76 75 74 72 70 67 64 63 62
10 13 15 17 19 19 20 22 23 23 23 23 23 22 22 22 22 23 22 21 20 19 18 18 16 15 14 13 12 12 12 12 13 14 16 18 21 24 28 33 38 44 50 56 58 60 63 67 73 81 88 94 99 101 101 99 96 93 91 90 92 96 95 91 89 88 84 77 72 72 74 75 75 76 78 79 79 79 78 77 74 72 70 68 66 65
8 11 14 16 17 19 20 21 22 22 22 23 24 23 23 23 23 23 22 21 20 19 17 17 16 15 13 12 10 10 10 10 12 13 15 17 19 22 25 29 34 40 46 51 56 58 59 61 66 75 84 92 96 99 100 99 96 92 92 91 91 94 95 92 91 90 87 81 76 75 76 77 77 78 80 82 81 80 79 78 76 73 71 70 69 68
6 8 12 14 15 15 18 20 21 21 22 23 24 24 25 25 26 25 24 23 22 20 19 19 18 17 16 14 12 10 9 8 9 10 12 14 16 19 22 25 29 34 39 45 50 54 56 58 60 67 76 85 91 96 99 99 96 93 91 91 91 93 95 93 91 91 90 86 80 77 76 78 79 79 81 82 82 81 80 79 76 73 72 71 71 70
5 6 9 12 13 12 14 16 18 19 21 21 21 22 24 24 25 25 24 23 23 23 23 23 23 22 21 20 17 15 13 11 10 10 11 12 14 16 19 21 25 29 33 38 44 49 52 55 56 60 67 75 83 90 96 99 97 93 88 87 89 93 95 93 91 91 91 89 85 80 78 79 80 81 81 82 82 81 80 80 79 75 73 72 73 72
6 6 7 9 11 11 11 12 14 17 18 18 17 18 19 20 20 21 21 21 20 21 22 21 21 21 20 19 17 16 14 12 11 11 11 12 14 16 18 21 23 26 30 34 39 44 48 51 53 56 61 67 74 83 91 97 98 96 91 86 87 91 94 93 90 91 93 92 89 85 81 81 82 83 82 83 84 83 81 81 81 80 77 75 74 73
7 7 6 7 9 10 9 9 11 14 15 14 15 15 16 16 16 17 17 16 16 17 17 15 16 17 17 15 13 13 12 10 8 8 9 10 12 14 16 19 21 24 27 30 34 38 42 46 50 53 57 62 68 75 83 90 95 95 94 91 89 90 94 94 91 92 94 95 93 89 86 84 84 85 85 85 85 85 83 81 82 83 82 80 77 75
8 8 7 6 8 9 9 9 9 10 11 12 13 14 13 12 12 13 14 14 14 14 13 11 12 14 14 12 11 10 9 7 6 6 6 7 8 10 12 14 17 20 23 26 29 33 37 41 45 49 53 57 63 69 76 82 88 90 91 92 91 91 93 95 94 93 95 97 96 94 91 88 87 87 88 87 87 86 85 82 82 83 85 85 82 79
10 9 8 7 7 9 9 9 9 8 9 9 10 11 10 9 9 9 10 11 11 12 11 10 10 11 11 11 10 9 7 6 6 6 6 6 6 7 8 9 12 15 19 23 26 29 33 36 40 44 49 53 58 64 71 77 82 86 87 89 92 93 93 95 96 96 96 98 99 98 95 93 91 89 89 90 89 88 87 85 83 83 85 87 86 84
13 12 11 9 9 9 10 9 9 9 9 8 8 8 8 7 7 6 6 8 8 8 9 9 9 9 9 9 8 7 7 7 8 8 7 6 6 6 6 7 9 11 15 19 23 26 29 32 36 40 45 49 54 59 66 72 78 83 85 87 90 93 94 95 95 97 98 99 101 101 99 97 95 92 91 91 91 90 89 88 86 85 85 87 88 87
15 14 13 12 10 10 11 11 10 10 10 9 8 8 8 7 5 3 4 5 5 6 7 8 8 8 8 8 7 6 6 8 9 9 7 6 5 6 7 7 8 9 12 16 19 22 25 28 32 36 41 45 50 55 61 67 73 78 82 85 88 92 94 95 95 96 98 99 101 102 101 100 99 96 94 93 92 91 91 90 89 88 87 88 89 89
16 16 15 14 12 11 11 11 11 11 11 11 9 9 10 9 6 5 5 4 4 6 7 7 7 7 6 6 5 5 7 8 7 5 4 4 4 4 5 7 8 9 10 12 15 18 21 24 28 32 36 41 46 51 57 62 68 73 78 82 86 89 92 94 96 97 98 99 100 102 102 102 102 100 97 96 95 93 93 93 92 91 89 89 90 90
15 16 16 15 14 13 11 11 11 11 11 11 10 10 10 10 8 8 8 7 6 6 7 7 8 8 7 7 7 8 9 9 7 5 5 6 6 6 7 9 10 10 11 12 14 16 18 21 24 27 32 37 42 47 52 57 63 68 73 78 82 86 89 92 94 95 97 99 100 101 102 103 103 103 101 98 97 97 96 96 96 94 92 90 90 91
12 14 15 15 14 13 12 12 11 10 10 10 9 9 9 9 10 9 9 9 8 8 9 9 10 10 11 11 11 11 12 12 11 9 9 10 10 11 12 13 13 13 14 15 16 17 19 21 23 25 29 33 38 42 47 52 57 63 68 73 77 82 85 89 91 94 96 98 100 101 102 103 103 105 104 102 101 100 99 99 99 98 96 93 91 91
5 8 11 12 12 11 11 11 12 11 10 9 9 10 11 11 12 11 11 11 11 11 11 11 12 12 13 14 14 14 15 16 16 15 14 14 15 15 16 17 17 17 17 18 18 19 20 22 23 25 28 31 34 38 43 47 52 57 62 67 72 77 81 85 88 91 94 97 99 101 102 103 103 105 106 105 104 103 103 102 102 102 101 99 96 94
5 4 6 7 7 7 7 8 9 10 11 11 10 12 13 13 14 14 14 14 14 14 14 13 13 14 15 15 16 16 17 19 19 20 20 20 20 20 20 21 21 21 21 21 21 22 23 24 25 26 28 30 33 36 39 43 47 52 56 61 66 71 76 79 83 87 91 94 97 99 101 103 104 106 107 107 107 106 106 106 105 105 105 104 101 100
11 9 7 5 4 3 3 5 6 7 10 11 11 12 13 14 15 16 16 16 17 17 17 17 18 18 18 19 19 19 20 20 21 21 22 23 23 24 24 24 24 24 25 25 24 25 25 26 26 27 29 31 33 35 38 41 45 48 52 56 61 65 70 74 78 82 86 90 94 97 100 102 104 106 108 109 109 108 108 108 108 108 108 108 107 106
18 16 14 11 9 7 4 2 0 2 4 6 7 8 9 10 11 13 14 15 16 17 18 19 19 20 21 22 22 23 24 24 24 25 25 25 25 26 26 27 27 27 27 27 28 28 28 28 29 29 30 31 33 35 38 41 44 47 50 54 58 61 65 69 73 77 81 86 90 94 97 101 104 107 109 110 111 110 110 110 111 111 111 111 111 111
23 22 20 18 17 15 13 11 10 9 7 6 5 5 5 5 6 7 8 10 11 13 14 16 17 19 20 21 22 23 25 26 27 28 29 29 29 29 30 30 30 30 31 31 31 31 31 32 32 33 33 34 35 36 38 40 43 46 49 52 55 59 63 66 69 73 77 81 85 89 93 97 101 105 108 110 111 111 112 112 112 112 113 113 113 113
28 27 26 25 24 24 23 21 21 20 19 18 17 16 15 13 12 10 9 8 7 7 7 8 9 11 13 14 16 18 20 22 24 26 27 29 30 31 32 33 34 34 35 35 35 36 35 36 36 36 37 37 38 38 39 41 43 45 48 51 53 57 60 63 66 70 73 77 80 84 88 91 95 99 102 105 108 109 111 112 113 113 114 114 115 115
31 31 30 30 29 29 28 27 27 26 25 24 23 22 21 20 20 19 18 17 15 14 13 12 11 10 9 9 9 9 11 13 15 17 20 22 25 27 30 32 34 35 36 37 38 39 40 40 40 40 40 41 41 42 42 44 45 46 48 51 53 55 58 61 64 67 70 73 76 79 82 86 89 92 95 98 102 105 108 111 113 114 115 116 117 118
30 30 30 30 29 28 28 27 27 26 25 25 24 24 23 23 22 22 21 20 20 19 18 17 16 15 14 13 12 12 11 11 11 11 12 14 16 18 21 24 27 30 33 35 37 39 40 41 42 43 44 44 45 45 46 47 48 49 51 53 55 56 59 61 64 66 68 70 73 76 79 81 83 86 89 92 95 98 102 106 109 111 113 116 119 121
28 28 28 28 27 27 26 26 26 25 25 25 24 24 24 23 23 22 22 22 21 20 19 18 18 17 16 16 16 15 15 14 14 13 13 13 13 14 15 16 18 21 24 28 31 34 37 39 41 43 44 45 46 47 48 49 50 51 52 54 56 58 60 62 65 67 69 69 71 73 76 78 81 83 85 87 89 92 95 98 103 106 108 112 116 120
Wind_Direction
313 311 309 306 301 295 288 282 276 269 259 249 243 239 236 233 231 230 231 233 231 230 229 226 221 219 219 220 219 218 217 218 220 223 225 224 222 219 214 211 211 212 213 215 216 216 216 214 213 215 216 217 219 216 214 213 213 217 219 216 214 216 218 220 224 224 225 228 227 228 234 238 239 241 245 238 227 220 213 207 205 211 221 221 214 212
314 314 314 311 306 298 291 284 278 271 260 250 242 237 234 233 231 230 230 232 232 230 229 228 223 219 220 219 219 218 217 216 218 221 223 224 223 219 216 213 212 213 213 214 215 215 215 213 211 213 214 215 217 216 214 213 213 216 218 215 212 213 215 217 222 223 225 227 227 224 225 229 234 247 263 258 242 226 215 208 205 210 219 222 219 216
317 317 318 316 310 303 294 286 281 273 262 250 241 235 231 230 230 230 229 230 230 228 228 228 224 220 220 220 220 219 218 216 217 219 221 222 222 220 216 214 213 213 213 213 213 214 215 214 211 211 212 213 215 215 213 212 212 214 215 213 210 211 213 216 221 223 224 226 225 220 217 222 231 246 263 265 251 230 217 210 205 210 218 219 219 219
319 319 319 317 311 306 300 292 283 274 263 251 242 236 231 228 228 229 229 230 229 228 227 227 224 220 219 220 220 219 218 217 216 217 219 221 221 221 218 214 214 213 213 213 213 212 215 215 211 210 210 211 213 215 214 213 212 211 211 210 208 210 213 216 221 224 224 226 225 216 211 217 228 241 253 253 243 228 218 212 206 209 217 218 218 219
320 319 319 317 314 309 305 298 289 276 263 253 245 238 233 229 227 228 229 230 230 229 227 227 225 222 220 220 220 220 218 218 216 216 218 220 220 220 219 216 214 214 212 213 213 212 213 214 211 209 209 209 211 214 215 213 211 208 208 208 207 208 211 215 221 223 223 225 222 213 209 217 226 236 244 242 232 224 218 213 208 208 215 218 218 220
320 319 318 317 315 310 306 300 293 281 265 254 247 240 235 231 228 228 229 229 230 229 228 227 225 223 222 220 220 220 220 219 218 217 218 220 221 221 220 218 216 214 212 213 214 212 213 213 210 208 208 207 209 213 214 214 210 207 207 208 207 207 211 216 220 221 221 221 217 210 210 219 226 232 241 242 230 222 219 215 211 209 212 218 219 220
321 320 318 317 315 310 307 300 293 283 267 253 248 243 236 233 230 229 230 229 229 229 228 228 227 224 223 222 220 220 221 220 219 218 217 220 222 221 221 220 218 216 213 213 214 212 212 213 210 208 206 205 207 210 213 213 209 207 208 208 207 207 210 216 220 221 220 217 214 210 211 218 225 231 239 245 236 227 223 219 215 211 211 215 217 217
323 323 320 319 319 315 311 303 295 287 272 255 246 242 238 234 231 230 230 229 229 229 228 229 228 226 225 224 221 220 221 221 220 218 217 218 221 221 221 221 220 218 215 214 214 213 212 212 210 209 206 204 206 209 212 212 208 207 208 208 207 207 210 215 220 221 218 215 213 212 214 217 223 228 236 245 240 232 228 223 219 216 214 215 216 216
325 326 323 322 321 318 316 308 298 291 282 264 246 238 236 234 232 230 229 229 228 229 228 228 228 228 227 224 222 220 221 222 221 220 218 218 220 221 220 220 221 219 216 215 215 214 212 212 212 210 206 204 206 210 212 211 208 208 208 208 208 207 209 213 219 219 215 213 213 215 218 219 221 226 234 245 245 236 230 226 223 220 219 219 219 218
328 330 329 325 322 319 317 312 302 295 289 276 255 239 233 231 230 229 229 228 227 228 229 228 228 228 226 221 219 219 219 221 222 221 220 220 220 221 221 221 222 221 217 215 215 215 213 212 212 210 207 205 206 210 213 211 209 209 209 208 208 207 208 212 216 215 211 212 215 218 222 223 223 225 234 245 247 238 232 229 226 224 223 223 223 223
333 335 334 328 323 320 319 316 311 303 293 281 262 243 234 230 228 227 226 225 224 225 226 226 226 226 223 218 215 215 216 219 222 221 221 221 221 222 223 222 222 222 220 216 215 216 214 213 212 210 207 206 206 210 214 212 210 211 211 208 207 207 208 212 213 209 207 212 217 220 224 225 224 226 236 245 243 236 232 231 230 228 227 227 226 226
337 339 336 330 325 324 325 325 322 317 308 289 266 245 231 227 226 223 222 221 219 220 220 220 221 220 219 215 210 209 209 211 216 217 217 217 218 218 220 223 221 220 221 220 217 216 216 214 212 210 208 206 206 209 213 213 212 214 214 208 206 208 209 212 212 208 209 215 219 223 226 226 225 228 237 240 236 233 229 227 230 231 231 232 231 229
341 341 338 334 329 327 334 337 334 332 324 298 271 249 226 217 218 218 216 214 213 213 213 212 212 212 210 207 203 202 203 202 206 212 213 213 211 208 210 218 217 210 209 215 218 218 217 214 212 211 210 207 205 205 208 209 210 214 214 209 207 210 212 214 214 212 217 223 225 227 229 228 230 232 230 227 229 231 227 224 226 227 228 231 234 233
349 346 342 340 336 334 344 347 341 340 334 312 283 247 217 205 205 208 206 204 204 204 203 201 198 200 199 196 191 192 195 193 191 202 209 208 207 205 205 212 211 203 198 202 211 214 214 213 210 208 209 207 204 204 204 204 204 205 206 206 209 213 215 215 214 213 217 224 228 229 229 231 234 231 221 219 225 228 227 224 223 224 223 222 227 233
357 354 350 349 346 344 354 354 343 346 353 333 311 246 205 190 181 192 196 195 195 192 188 182 182 186 186 184 183 181 184 183 182 193 201 203 205 206 206 207 203 198 197 198 203 206 208 209 207 206 207 205 204 203 203 202 198 195 199 204 209 214 216 216 215 213 215 221 226 227 228 231 233 225 217 217 221 223 225 225 224 225 223 221 222 226
3 2 359 357 353 350 357 358 348 354 10 352 344 119 170 173 164 179 188 187 184 177 172 171 172 175 175 175 176 173 173 176 178 187 195 201 205 206 205 204 200 197 197 198 201 202 203 204 204 206 206 204 203 202 201 198 193 193 201 205 207 211 215 218 216 214 215 220 224 225 226 229 228 221 216 217 219 220 221 222 224 225 225 224 224 226
9 8 5 3 359 356 360 4 357 359 16 8 6 133 160 163 161 177 185 186 181 169 167 169 169 170 169 168 171 169 169 174 178 185 194 202 207 206 204 203 201 200 198 199 201 202 203 204 204 206 206 204 203 201 199 196 193 196 204 204 203 205 212 216 214 212 215 220 223 223 223 225 222 217 217 218 219 220 219 220 224 226 228 227 226 227
14 13 10 7 5 3 5 9 6 7 23 23 19 134 159 160 161 174 183 188 182 169 168 170 169 169 168 166 168 169 170 176 181 187 196 204 206 205 203 202 202 201 198 198 199 200 202 204 204 206 207 206 204 201 199 198 196 199 204 203 203 205 210 212 210 209 213 217 220 220 220 221 217 215 217 217 216 218 218 217 220 226 230 232 232 233
19 18 15 12 10 8 8 12 15 19 36 40 30 113 158 157 159 174 182 187 180 168 169 172 170 170 170 169 171 171 172 178 184 190 195 201 201 199 199 202 204 202 197 195 195 196 200 203 203 204 206 207 205 201 200 199 198 200 203 203 204 208 212 211 207 209 211 214 218 219 219 218 215 213 216 215 212 214 217 218 220 226 232 236 238 239
24 22 19 17 16 14 13 17 20 24 45 57 43 40 133 139 152 173 183 186 179 168 170 175 174 172 171 172 174 175 178 183 188 192 195 196 194 193 196 201 204 202 197 196 196 197 199 201 202 203 205 206 206 202 200 200 200 202 204 204 204 209 212 210 208 209 211 213 218 219 218 217 214 212 215 215 210 209 215 219 220 224 229 231 233 233
30 28 23 20 21 21 22 25 26 25 43 60 48 28 76 132 153 167 174 178 177 170 172 178 179 175 173 172 174 177 183 189 192 195 197 195 192 193 196 200 204 203 199 199 201 200 200 201 202 202 203 205 205 203 202 202 202 203 203 204 205 207 208 208 208 210 211 214 218 219 217 216 214 212 214 215 210 208 214 218 221 224 224 223 225 229
37 36 30 25 26 27 29 31 31 28 38 57 55 50 74 125 146 151 158 164 169 173 176 180 181 180 178 176 177 182 188 193 197 199 199 198 196 196 198 201 203 203 201 202 202 202 202 201 201 202 203 204 205 203 203 204 203 204 204 205 206 206 205 206 209 212 213 215 218 219 216 214 214 213 214 215 211 209 213 217 220 222 221 219 221 225
43 41 35 32 33 35 37 37 36 32 38 55 61 65 81 109 125 136 149 156 162 167 171 179 184 184 183 183 185 191 195 196 201 204 204 203 201 200 202 203 203 203 203 203 203 203 204 202 202 203 204 205 204 203 204 204 204 206 206 206 208 207 204 205 209 213 215 216 218 220 216 214 214 214 213 214 212 209 212 215 218 219 218 217 218 221
49 47 40 37 40 43 45 46 45 44 48 58 64 67 77 95 110 129 149 158 163 163 162 171 184 187 188 190 190 192 197 199 202 206 207 208 207 204 204 205 205 205 205 205 205 205 205 204 204 204 205 206 205 204 205 205 205 207 207 207 209 208 206 205 208 212 215 215 218 220 217 214 214 213 213 214 213 211 213 216 218 218 217 217 219 221
55 53 46 42 44 49 54 56 56 55 58 64 67 67 70 81 94 113 140 154 162 167 166 169 178 186 191 194 192 187 190 198 201 200 202 206 209 209 208 208 209 208 207 207 207 207 207 206 205 205 205 207 206 205 206 207 207 208 209 209 209 209 208 207 208 211 214 215 218 219 216 214 215 214 213 214 215 214 215 217 219 219 219 220 222 223
61 59 54 49 48 52 59 65 66 65 65 67 69 70 72 78 87 98 114 131 146 160 170 173 177 184 189 189 188 188 190 197 201 201 199 203 207 209 210 212 212 211 209 208 208 208 208 208 207 206 206 207 206 205 207 208 207 209 210 210 209 209 209 209 209 210 212 215 217 217 214 213 214 214 214 215 216 216 217 217 219 221 221 222 224 225
67 65 62 58 53 54 60 66 71 73 73 73 73 74 74 76 80 87 93 99 107 115 125 142 155 165 171 172 177 185 190 192 196 199 200 201 205 208 209 211 213 213 212 211 210 210 210 209 208 208 207 207 207 206 207 208 208 210 211 211 210 209 209 210 210 210 212 214 215 215 213 212 214 215 215 215 216 217 218 218 219 221 222 222 224 226
74 72 71 67 62 61 63 66 69 73 77 79 80 80 80 81 81 82 85 87 90 93 97 105 115 122 131 141 152 165 177 186 192 196 199 201 203 207 209 211 212 213 214 214 213 212 212 211 210 209 209 208 208 207 207 208 209 211 213 213 211 210 211 212 211 210 211 212 213 214 213 212 214 217 217 216 217 218 219 220 220 221 222 223 225 227
81 80 79 76 73 71 71 72 71 71 74 77 79 82 84 86 87 87 88 90 92 94 95 99 104 107 110 117 127 138 151 167 181 191 197 200 203 206 210 212 213 213 214 216 216 215 214 213 211 210 210 209 209 209 208 210 211 213 215 216 214 212 212 214 213 211 211 212 212 214 214 214 216 218 218 218 219 220 220 221 222 222 222 223 225 228
89 88 87 83 81 81 80 80 79 78 79 78 78 79 81 84 86 87 88 91 93 96 99 103 106 108 112 118 128 140 151 161 173 184 192 197 202 205 210 213 214 215 215 216 218 219 217 215 213 211 210 209 210 210 210 211 212 214 217 218 216 214 214 216 215 213 212 213 213 214 215 216 218 219 220 220 221 222 222 222 222 222 223 224 226 228
100 96 96 91 87 86 87 86 84 84 85 86 86 85 85 86 86 86 87 88 89 89 92 95 96 96 100 104 113 128 143 157 169 180 189 196 202 206 210 213 215 217 217 217 219 221 221 219 215 212 210 209 210 211 212 212 214 216 218 219 219 216 215 216 216 214 213 213 213 214 216 217 218 220 221 221 222 223 223 223 223 224 224 226 227 229
120 112 109 100 92 91 91 89 86 86 85 85 85 87 89 89 88 88 89 90 92 95 96 97 97 96 94 91 91 96 105 125 148 166 180 191 199 205 210 214 216 218 219 220 221 222 223 222 218 213 211 211 212 213 213 214 216 217 219 221 221 219 217 217 217 216 215 214 214 215 217 218 219 220 221 222 223 224 224 224 224 225 225 226 228 229
148 138 124 112 103 97 93 90 89 89 86 82 81 86 88 88 86 85 86 87 90 95 98 98 98 96 94 94 97 101 105 112 128 147 164 179 191 198 204 210 213 216 218 219 221 223 224 224 222 218 214 213 213 214 215 216 217 219 221 223 222 220 217 217 217 217 216 216 215 216 218 219 221 222 223 224 225 225 225 225 225 225 226 226 227 228
173 162 142 129 121 109 96 91 91 92 89 85 86 90 90 88 86 84 82 82 86 90 90 91 94 95 95 97 101 104 105 108 122 141 157 171 184 193 200 205 209 212 215 217 219 221 223 224 224 222 218 216 214 214 215 216 219 221 224 225 223 220 218 217 218 217 217 217 217 217 218 220 222 224 226 227 227 227 227 226 225 225 226 227 227 228
189 182 163 148 141 129 111 99 96 95 93 91 93 97 97 94 94 92 88 89 93 92 87 89 99 102 99 95 95 95 95 100 118 141 157 170 181 190 197 204 209 212 214 216 218 220 222 223 223 223 221 218 216 215 215 216 219 222 224 226 224 221 219 219 219 218 218 218 218 219 219 220 222 225 228 229 229 229 229 229 227 226 227 229 230 230
201 199 187 169 160 149 131 115 108 103 98 98 102 102 99 98 100 102 102 105 110 106 100 104 113 110 101 98 102 104 102 110 128 141 154 168 179 189 194 201 206 210 212 213 215 217 220 222 223 223 222 220 218 216 216 216 218 221 223 225 224 222 221 221 220 220 219 219 219 220 221 221 222 225 228 231 231 231 230 230 229 228 228 229 231 232
207 206 203 194 181 170 154 137 131 126 114 110 111 107 100 99 103 109 112 117 122 119 115 122 128 121 113 114 121 125 124 130 140 142 149 160 166 175 187 197 204 209 212 211 212 214 216 219 221 223 223 222 220 218 217 217 218 221 223 224 224 223 222 221 221 221 221 221 221 221 222 222 222 224 228 230 232 233 232 231 230 230 229 230 231 233
213 211 211 209 199 188 175 161 155 152 141 131 126 119 113 110 106 112 123 129 134 134 131 137 142 140 137 138 141 144 148 152 153 149 153 161 162 161 171 185 200 209 213 213 213 214 215 216 219 221 222 223 222 221 219 218 219 220 223 224 224 224 223 222 222 222 222 223 222 222 223 223 223 224 226 229 232 234 234 233 232 232 232 231 231 233
222 219 217 216 212 203 193 183 177 172 165 159 154 146 140 131 122 130 145 146 158 167 161 157 160 161 161 163 162 163 172 173 165 154 151 162 172 178 182 186 192 203 213 216 214 214 214 216 218 220 221 222 223 223 222 221 221 221 223 224 225 225 225 224 223 223 223 224 224 224 224 224 224 224 226 228 230 232 235 236 236 235 234 233 233 233
227 227 226 224 222 217 208 201 196 191 186 183 179 172 167 161 159 174 183 180 192 199 197 194 192 190 188 190 190 188 190 188 179 168 169 184 197 210 215 212 207 204 206 211 213 212 213 216 218 220 221 222 223 224 224 224 224 223 224 225 226 226 226 226 226 225 225 225 226 226 226 226 226 226 226 228 229 230 233 236 238 238 237 236 235 234
227 227 228 229 229 227 222 217 216 211 205 202 198 192 188 187 189 194 196 200 213 220 222 226 228 228 229 227 220 212 207 207 208 217 232 237 239 244 248 245 235 223 214 211 211 210 211 214 217 219 221 222 223 224 225 226 226 226 226 226 227 227 228 228 228 228 227 227 227 227 227 228 227 227 227 228 229 230 232 235 238 239 239 238 237 236
225 224 225 227 230 232 230 229 232 234 229 224 223 222 220 220 223 219 213 215 224 230 231 233 236 240 243 244 240 234 229 228 230 234 239 245 248 249 252 253 249 242 235 227 220 216 215 216 218 219 221 223 224 225 226 227 227 228 228 228 228 228 229 229 229 229 229 229 229 229 229 229 229 228 228 229 230 231 232 233 236 238 240 240 239 239
211 211 216 221 227 231 235 237 242 249 254 252 249 250 251 251 252 252 248 245 246 244 241 239 237 237 241 243 245 247 248 248 249 251 251 252 252 252 253 255 255 253 248 242 235 230 226 224 224 223 223 224 225 226 227 228 229 229 230 230 230 230 230 230 231 231 231 231 231 231 230 230 230 229 229 230 231 232 233 234 235 237 239 241 241 241
100 144 180 198 211 222 236 245 251 258 266 271 270 265 265 266 267 270 270 268 267 265 263 261 257 253 252 251 251 252 253 253 254 257 258 259 259 258 258 258 258 257 256 253 247 242 238 235 233 232 231 229 228 227 227 228 229 229 230 231 231 232 232 232 232 232 232 233 233 232 232 232 231 230 230 231 233 234 234 235 235 237 238 240 241 242
82 94 110 129 146 169 222 251 262 265 270 276 279 275 273 273 273 273 274 274 273 272 272 271 270 268 267 266 266 265 263 261 260 260 260 261 261 261 261 260 260 258 257 257 255 251 248 244 242 241 240 239 237 235 232 230 229 229 230 231 232 233 233 234 234 234 234 234 234 234 234 234 233 232 232 233 235 236 236 236 236 237 238 240 241 242
76 80 85 88 92 94 96 99 344 293 281 284 289 286 284 284 281 280 280 279 279 277 276 275 274 273 271 270 268 268 268 268 267 266 265 264 264 263 263 263 262 261 259 258 256 255 253 251 248 246 245 245 245 243 241 238 235 233 231 231 232 232 233 234 235 235 235 236 236 236 236 236 235 235 235 236 237 238 238 238 238 238 239 240 241 242
76 78 79 81 82 82 81 79 76 73 68 60 45 29 14 354 332 317 308 301 295 291 288 285 283 280 279 276 274 272 271 270 270 270 269 269 268 267 266 265 265 264 262 261 259 257 256 254 252 250 248 247 247 246 245 244 242 239 236 234 233 233 233 234 235 236 237 237 237 237 237 237 238 238 239 239 240 239 240 240 240 240 241 241 242 243
80 80 81 81 81 81 80 78 77 75 73 71 68 65 61 58 53 48 40 30 16 359 343 327 315 306 299 293 289 285 282 279 277 276 275 274 273 272 271 270 268 267 265 264 262 260 258 256 254 252 250 248 247 246 244 244 244 243 242 239 237 236 235 234 235 236 237 237 238 239 239 239 240 240 241 241 242 241 241 241 242 242 242 243 243 243
82 82 83 82 82 82 81 81 80 79 78 77 76 74 72 70 68 66 63 61 58 54 50 44 35 24 10 355 341 329 317 306 299 293 289 285 282 279 277 275 274 272 270 268 266 264 262 260 258 256 254 251 249 247 245 243 242 242 242 242 241 240 238 236 235 235 236 237 238 239 239 240 241 242 243 243 243 244 243 243 243 244 244 245 245 246
84 84 84 84 83 82 81 81 80 79 78 77 75 73 71 68 66 64 62 60 58 55 53 51 48 44 40 34 29 23 15 4 351 339 327 316 306 297 290 285 281 278 275 273 271 269 267 265 262 260 258 256 254 252 249 247 245 243 242 242 242 242 241 239 237 236 236 237 237 238 239 240 241 242 243 244 245 245 246 246 246 246 246 247 248 248
84 83 83 82 81 80 79 77 75 73 71 68 66 63 61 59 56 54 52 50 48 46 45 43 42 39 37 35 32 29 25 21 16 11 4 355 346 335 323 312 302 294 286 281 277 274 271 269 267 265 262 260 258 256 254 252 250 248 246 245 244 243 243 242 241 239 237 237 237 238 239 239 240 241 242 243 244 246 247 248 248 248 249 249 250 251
Height
10494 10490 10485 10480 10476 10473 10470 10468 10467 10466 10467 10469 10471 10473 10475 10478 10481 10484 10486 10488 10495 10504 10510 10516 10525 10534 10537 10542 10549 10555 10562 10568 10571 10573 10577 10585 10594 10604 10614 10622 10627 10632 10636 10640 10644 10652 10658 10663 10671 10676 10680 10685 10689 10695 10701 10705 10708 10711 10715 10720 10725 10728 10732 10735 10738 10741 10745 10747 10749 10751 10752 10754 10756 10758 10760 10762 10763 10765 10768 10771 10775 10778 10779 10783 10787 10791
10487 10483 10479 10475 10471 10468 10465 10463 10461 10461 10461 10462 10464 10467 10469 10471 10474 10478 10480 10482 10488 10498 10503 10508 10519 10527 10530 10533 10538 10543 10551 10558 10561 10564 10568 10575 10583 10593 10604 10613 10619 10623 10628 10633 10639 10647 10653 10658 10665 10670 10675 10680 10683 10688 10694 10699 10704 10708 10712 10717 10722 10725 10727 10731 10734 10738 10741 10744 10746 10748 10750 10751 10753 10756 10759 10760 10761 10763 10765 10768 10772 10775 10777 10780 10784 10788
10482 10478 10474 10469 10465 10463 10461 10458 10457 10456 10456 10457 10458 10460 10463 10465 10468 10471 10473 10474 10480 10489 10494 10500 10511 10519 10522 10525 10529 10534 10542 10548 10551 10555 10559 10564 10572 10583 10595 10604 10609 10614 10620 10627 10634 10641 10646 10651 10658 10664 10669 10674 10678 10683 10689 10694 10699 10704 10708 10713 10718 10720 10723 10727 10731 10735 10737 10740 10742 10744 10747 10749 10751 10754 10756 10759 10760 10762 10763 10766 10769 10772 10775 10777 10781 10784
10478 10474 10469 10465 10461 10458 10457 10455 10453 10452 10452 10452 10453 10455 10457 10459 10462 10464 10465 10468 10473 10481 10486 10492 10501 10509 10513 10515 10519 10523 10529 10534 10538 10542 10547 10553 10562 10573 10585 10594 10600 10605 10613 10621 10628 10634 10639 10645 10651 10658 10663 10668 10674 10678 10683 10688 10694 10699 10704 10710 10714 10717 10720 10725 10728 10731 10734 10737 10740 10744 10746 10748 10749 10752 10753 10755 10758 10760 10762 10763 10766 10769 10771 10774 10777 10780
10474 10470 10466 10462 10458 10455 10453 10451 10449 10448 10448 10448 10449 10451 10453 10455 10457 10458 10460 10464 10470 10475 10479 10485 10492 10499 10502 10504 10507 10511 10517 10523 10528 10534 10540 10546 10555 10565 10576 10587 10594 10599 10608 10616 10622 10629 10634 10639 10645 10652 10657 10664 10670 10674 10678 10683 10689 10695 10700 10707 10712 10715 10718 10722 10724 10727 10731 10735 10740 10743 10744 10744 10746 10747 10749 10751 10753 10756 10758 10759 10761 10764 10767 10769 10773 10776
10472 10467 10463 10459 10456 10453 10450 10448 10447 10445 10444 10445 10446 10447 10449 10451 10452 10454 10456 10460 10464 10468 10473 10478 10483 10488 10492 10495 10498 10503 10511 10518 10525 10535 10544 10549 10554 10563 10573 10583 10590 10596 10605 10612 10617 10624 10628 10633 10641 10648 10653 10659 10665 10668 10672 10678 10685 10692 10699 10705 10710 10713 10716 10719 10722 10726 10729 10733 10737 10739 10739 10740 10741 10742 10744 10746 10747 10749 10751 10753 10756 10759 10763 10765 10768 10772
10469 10464 10460 10457 10454 10451 10448 10446 10444 10442 10442 10442 10443 10444 10445 10446 10448 10450 10452 10456 10459 10462 10467 10469 10473 10479 10483 10485 10492 10500 10508 10515 10522 10531 10541 10546 10551 10561 10571 10579 10585 10593 10601 10607 10612 10619 10623 10630 10639 10644 10648 10653 10658 10662 10668 10675 10683 10691 10697 10703 10708 10711 10715 10718 10721 10725 10728 10731 10734 10736 10735 10735 10737 10738 10740 10742 10743 10745 10747 10750 10753 10756 10759 10762 10765 10769
10466 10462 10457 10454 10451 10448 10446 10443 10441 10440 10439 10440 10440 10441 10442 10443 10444 10447 10448 10451 10454 10457 10460 10462 10467 10472 10474 10480 10491 10500 10506 10510 10516 10525 10536 10541 10546 10556 10565 10572 10580 10590 10599 10605 10611 10617 10623 10630 10637 10641 10645 10652 10657 10662 10667 10675 10684 10691 10696 10701 10705 10708 10712 10716 10719 10723 10725 10728 10731 10732 10731 10731 10733 10735 10737 10740 10742 10743 10746 10749 10752 10755 10757 10759 10763 10766
10464 10460 10456 10452 10449 10446 10443 10441 10439 10438 10437 10438 10438 10438 10439 10440 10441 10443 10445 10447 10450 10452 10455 10458 10462 10465 10470 10480 10490 10497 10501 10505 10512 10523 10531 10535 10540 10548 10557 10566 10574 10584 10595 10603 10610 10617 10624 10630 10635 10640 10647 10653 10658 10663 10668 10676 10683 10688 10692 10697 10701 10705 10709 10713 10717 10720 10722 10725 10728 10729 10729 10728 10729 10732 10735 10738 10740 10741 10744 10747 10750 10752 10755 10757 10761 10764
10462 10458 10454 10451 10448 10445 10442 10440 10438 10436 10436 10435 10435 10436 10436 10437 10438 10440 10442 10445 10447 10448 10450 10454 10458 10462 10468 10477 10486 10492 10498 10504 10511 10520 10527 10532 10540 10546 10554 10564 10570 10578 10588 10598 10607 10615 10622 10627 10633 10641 10648 10652 10658 10662 10667 10674 10679 10683 10689 10694 10699 10704 10708 10711 10715 10717 10719 10722 10725 10726 10726 10726 10728 10730 10733 10736 10737 10739 10741 10744 10747 10750 10752 10754 10758 10761
10460 10456 10453 10449 10446 10443 10441 10438 10437 10435 10434 10433 10434 10434 10434 10435 10436 10438 10440 10442 10443 10445 10448 10452 10455 10460 10466 10474 10482 10489 10496 10502 10508 10516 10524 10533 10541 10547 10556 10564 10567 10575 10586 10597 10606 10613 10619 10625 10631 10639 10645 10650 10656 10662 10666 10672 10677 10682 10687 10693 10699 10703 10707 10710 10713 10715 10717 10720 10721 10722 10722 10724 10726 10729 10731 10733 10734 10735 10737 10740 10744 10747 10750 10752 10755 10757
10458 10455 10451 10448 10444 10442 10439 10437 10435 10434 10432 10432 10432 10432 10432 10433 10434 10435 10437 10438 10440 10442 10445 10449 10453 10459 10465 10472 10479 10485 10490 10496 10501 10509 10517 10525 10534 10545 10555 10557 10559 10574 10588 10597 10603 10609 10616 10624 10630 10637 10643 10648 10655 10661 10667 10675 10682 10687 10691 10696 10701 10705 10708 10710 10713 10716 10717 10718 10718 10719 10720 10721 10723 10726 10729 10730 10731 10731 10732 10735 10739 10744 10748 10751 10753 10755
10458 10454 10451 10447 10443 10440 10438 10436 10434 10432 10431 10430 10430 10430 10430 10431 10432 10433 10434 10436 10438 10440 10443 10447 10452 10458 10462 10468 10474 10480 10485 10490 10496 10502 10508 10515 10526 10536 10539 10538 10548 10568 10583 10592 10599 10605 10611 10619 10626 10634 10638 10641 10646 10649 10655 10665 10677 10689 10697 10702 10707 10709 10709 10710 10712 10715 10716 10716 10716 10717 10718 10719 10721 10725 10727 10727 10728 10729 10729 10731 10734 10737 10742 10747 10750 10752
10457 10453 10449 10446 10442 10439 10436 10434 10432 10431 10430 10429 10429 10428 10428 10429 10430 10431 10433 10434 10436 10439 10442 10447 10452 10455 10459 10464 10469 10475 10480 10486 10493 10498 10503 10510 10519 10522 10521 10527 10543 10559 10571 10581 10588 10592 10599 10608 10617 10623 10626 10630 10635 10639 10644 10652 10664 10678 10690 10701 10706 10705 10702 10699 10700 10702 10705 10708 10710 10712 10715 10716 10719 10722 10723 10724 10725 10726 10727 10728 10730 10732 10735 10739 10743 10747
10456 10452 10448 10445 10441 10438 10435 10433 10432 10430 10429 10428 10428 10427 10427 10428 10429 10430 10432 10433 10435 10438 10442 10447 10449 10452 10456 10461 10466 10471 10477 10483 10488 10493 10499 10504 10508 10510 10513 10524 10539 10549 10557 10564 10567 10572 10583 10593 10601 10606 10610 10618 10627 10633 10640 10649 10660 10671 10678 10683 10687 10690 10691 10690 10691 10692 10694 10698 10703 10707 10710 10712 10716 10718 10719 10720 10722 10722 10724 10726 10728 10729 10731 10733 10736 10739
10455 10451 10448 10444 10441 10438 10435 10433 10431 10429 10428 10428 10427 10427 10427 10428 10429 10430 10431 10432 10435 10438 10442 10444 10447 10450 10454 10459 10464 10469 10475 10479 10482 10487 10492 10493 10496 10500 10508 10521 10534 10541 10548 10553 10556 10563 10572 10581 10589 10593 10598 10606 10614 10620 10629 10641 10652 10656 10654 10655 10661 10672 10681 10682 10683 10686 10689 10693 10697 10701 10705 10708 10712 10714 10715 10717 10717 10717 10719 10722 10724 10725 10726 10728 10731 10734
10455 10451 10447 10444 10441 10438 10435 10433 10431 10429 10428 10428 10428 10427 10427 10428 10429 10430 10432 10432 10434 10438 10441 10443 10445 10449 10453 10458 10463 10467 10471 10475 10478 10482 10484 10486 10490 10496 10504 10516 10527 10534 10540 10546 10552 10558 10565 10572 10581 10586 10590 10596 10602 10610 10621 10631 10638 10636 10634 10641 10652 10662 10667 10668 10672 10679 10684 10689 10693 10696 10699 10703 10707 10709 10711 10713 10714 10714 10716 10719 10721 10722 10723 10724 10727 10730
10455 10451 10448 10444 10441 10438 10435 10433 10431 10429 10428 10428 10428 10428 10427 10427 10428 10430 10432 10432 10434 10438 10440 10442 10444 10447 10451 10456 10460 10464 10468 10471 10474 10476 10478 10481 10486 10493 10501 10509 10517 10525 10532 10538 10544 10550 10557 10564 10571 10578 10584 10589 10595 10604 10612 10620 10625 10624 10624 10635 10647 10652 10653 10657 10666 10673 10679 10683 10686 10689 10693 10697 10701 10703 10705 10708 10709 10711 10713 10715 10718 10720 10721 10723 10725 10728
10455 10452 10449 10445 10442 10439 10436 10433 10432 10430 10429 10428 10428 10428 10427 10427 10428 10430 10431 10432 10434 10437 10440 10441 10443 10446 10449 10453 10456 10460 10464 10467 10469 10471 10473 10477 10481 10487 10495 10502 10508 10518 10526 10532 10536 10540 10546 10554 10563 10571 10577 10582 10588 10596 10603 10610 10615 10616 10619 10627 10638 10644 10647 10654 10661 10666 10671 10676 10680 10683 10687 10691 10694 10697 10699 10702 10703 10705 10707 10710 10714 10716 10718 10721 10724 10727
10455 10452 10449 10446 10442 10439 10436 10434 10432 10431 10429 10428 10428 10427 10427 10428 10429 10430 10431 10431 10433 10436 10439 10441 10443 10445 10449 10452 10455 10458 10461 10462 10464 10466 10468 10472 10476 10481 10488 10494 10501 10511 10521 10527 10531 10535 10539 10546 10554 10563 10569 10575 10582 10589 10595 10601 10606 10609 10614 10621 10629 10635 10640 10647 10653 10659 10664 10668 10673 10677 10681 10685 10687 10690 10693 10695 10697 10699 10701 10704 10707 10710 10712 10715 10719 10723
10456 10453 10450 10446 10443 10440 10437 10434 10432 10431 10430 10429 10428 10428 10428 10428 10429 10430 10431 10432 10434 10436 10439 10441 10443 10446 10448 10452 10455 10457 10459 10460 10461 10463 10466 10469 10473 10478 10484 10490 10496 10506 10514 10520 10526 10532 10536 10540 10546 10553 10560 10567 10573 10580 10588 10595 10599 10603 10608 10614 10621 10626 10631 10639 10645 10651 10656 10661 10666 10671 10675 10678 10681 10684 10688 10690 10691 10694 10696 10698 10701 10704 10705 10709 10713 10716
10456 10454 10451 10448 10444 10441 10438 10435 10433 10432 10431 10430 10429 10429 10429 10429 10429 10430 10431 10433 10435 10437 10440 10442 10445 10447 10449 10451 10454 10454 10456 10458 10460 10462 10465 10469 10473 10478 10482 10488 10494 10502 10509 10514 10520 10526 10532 10536 10540 10546 10552 10557 10563 10571 10580 10588 10593 10597 10602 10608 10614 10619 10625 10632 10639 10645 10651 10655 10660 10665 10669 10672 10676 10679 10683 10685 10686 10688 10690 10692 10695 10697 10699 10703 10706 10708
10457 10455 10452 10450 10446 10443 10439 10436 10434 10433 10432 10431 10430 10430 10430 10430 10430 10431 10432 10433 10434 10437 10440 10444 10446 10448 10450 10451 10453 10454 10456 10459 10462 10464 10467 10470 10474 10478 10483 10488 10493 10498 10503 10508 10513 10519 10526 10532 10536 10541 10546 10551 10557 10563 10572 10580 10587 10592 10598 10604 10609 10615 10621 10628 10634 10639 10645 10650 10654 10659 10663 10667 10670 10674 10677 10679 10680 10682 10684 10686 10688 10691 10694 10697 10700 10702
10458 10456 10454 10452 10448 10445 10442 10439 10437 10436 10434 10432 10432 10431 10431 10431 10431 10432 10433 10434 10435 10436 10440 10443 10446 10448 10449 10451 10453 10456 10459 10462 10464 10467 10469 10472 10474 10478 10483 10487 10492 10495 10499 10503 10508 10514 10520 10527 10533 10539 10544 10549 10555 10562 10569 10576 10583 10589 10595 10600 10605 10611 10617 10624 10629 10634 10640 10645 10649 10654 10658 10661 10665 10668 10672 10674 10675 10677 10680 10681 10683 10686 10689 10692 10694 10697
10459 10457 10456 10454 10451 10448 10445 10442 10440 10439 10437 10434 10433 10433 10433 10433 10434 10434 10435 10435 10436 10438 10440 10442 10444 10446 10448 10450 10453 10457 10459 10461 10463 10466 10468 10471 10475 10479 10483 10487 10489 10492 10496 10500 10505 10511 10517 10523 10529 10535 10540 10546 10552 10559 10566 10573 10580 10586 10591 10596 10601 10606 10613 10620 10625 10630 10636 10641 10645 10649 10653 10656 10660 10663 10667 10670 10672 10673 10675 10678 10680 10682 10685 10687 10689 10692
10460 10458 10457 10456 10453 10451 10449 10446 10444 10442 10440 10438 10437 10437 10437 10437 10437 10437 10438 10438 10439 10440 10442 10443 10445 10447 10449 10452 10455 10457 10459 10461 10463 10466 10468 10471 10475 10478 10482 10485 10487 10490 10493 10497 10502 10508 10513 10520 10526 10531 10536 10541 10546 10553 10560 10567 10573 10579 10584 10590 10595 10601 10608 10615 10621 10627 10633 10637 10640 10644 10648 10651 10655 10658 10662 10665 10667 10669 10670 10673 10676 10677 10679 10681 10683 10686
10461 10459 10459 10457 10455 10453 10452 10449 10447 10445 10444 10442 10441 10441 10441 10441 10441 10441 10441 10442 10442 10444 10445 10447 10448 10451 10453 10456 10458 10460 10461 10463 10464 10466 10469 10472 10474 10477 10480 10482 10484 10487 10490 10494 10499 10504 10509 10515 10522 10528 10533 10537 10542 10549 10555 10562 10568 10573 10578 10583 10589 10595 10602 10610 10617 10623 10628 10632 10635 10638 10641 10645 10649 10652 10656 10659 10661 10663 10665 10667 10669 10672 10674 10676 10679 10682
10462 10461 10460 10458 10457 10456 10454 10452 10451 10449 10447 10446 10445 10445 10445 10445 10445 10445 10445 10445 10446 10447 10448 10450 10451 10453 10456 10458 10460 10462 10464 10465 10466 10467 10469 10471 10474 10476 10478 10479 10482 10485 10488 10492 10496 10501 10506 10512 10518 10525 10530 10535 10540 10546 10552 10558 10564 10569 10574 10579 10585 10590 10598 10605 10611 10617 10621 10625 10628 10631 10635 10638 10642 10645 10649 10652 10654 10657 10659 10661 10663 10667 10670 10673 10675 10677
10464 10463 10461 10460 10459 10458 10457 10455 10454 10453 10451 10450 10449 10448 10448 10448 10447 10447 10448 10448 10449 10450 10451 10452 10454 10455 10457 10459 10461 10462 10464 10465 10467 10468 10469 10471 10473 10475 10477 10479 10481 10484 10487 10490 10494 10498 10503 10509 10515 10521 10527 10532 10537 10543 10549 10555 10560 10565 10570 10576 10581 10587 10594 10601 10606 10610 10614 10618 10622 10625 10628 10631 10635 10638 10641 10644 10647 10650 10652 10655 10658 10661 10665 10668 10670 10671
10465 10464 10463 10462 10461 10460 10459 10458 10456 10456 10455 10454 10453 10452 10452 10451 10451 10451 10451 10451 10452 10453 10453 10454 10455 10456 10458 10459 10460 10462 10463 10464 10466 10468 10469 10471 10473 10475 10476 10478 10480 10483 10485 10488 10491 10495 10499 10505 10511 10517 10523 10529 10534 10540 10546 10551 10556 10561 10566 10570 10577 10584 10590 10596 10601 10605 10609 10613 10616 10619 10622 10625 10628 10630 10633 10637 10640 10643 10646 10650 10653 10656 10659 10662 10664 10666
10466 10465 10464 10463 10463 10462 10461 10460 10459 10458 10458 10457 10456 10456 10455 10455 10455 10455 10454 10455 10455 10455 10456 10456 10457 10458 10459 10460 10461 10462 10463 10465 10466 10468 10470 10472 10473 10474 10476 10478 10480 10482 10485 10488 10490 10493 10496 10501 10507 10513 10519 10525 10531 10537 10542 10548 10553 10557 10562 10567 10573 10580 10586 10592 10596 10600 10604 10608 10611 10613 10616 10619 10622 10624 10626 10629 10633 10637 10641 10645 10648 10652 10654 10657 10659 10661
10467 10466 10466 10465 10465 10464 10463 10461 10461 10460 10460 10460 10459 10459 10459 10458 10458 10458 10458 10458 10458 10458 10458 10458 10459 10460 10460 10461 10462 10463 10464 10465 10466 10468 10470 10471 10473 10474 10476 10478 10480 10482 10485 10488 10490 10492 10495 10498 10503 10510 10516 10522 10528 10534 10539 10544 10549 10554 10559 10564 10570 10575 10581 10586 10590 10594 10598 10602 10605 10608 10611 10614 10617 10619 10622 10625 10629 10633 10636 10640 10644 10647 10649 10652 10654 10656
10467 10467 10467 10466 10466 10466 10465 10463 10463 10462 10462 10462 10462 10462 10461 10461 10461 10461 10460 10460 10460 10460 10460 10460 10460 10461 10462 10462 10463 10463 10464 10464 10465 10466 10468 10469 10471 10473 10474 10476 10478 10481 10483 10486 10489 10491 10493 10496 10501 10506 10513 10519 10525 10530 10536 10540 10545 10550 10556 10561 10566 10571 10576 10581 10585 10589 10593 10597 10600 10603 10606 10610 10613 10615 10618 10620 10624 10628 10631 10635 10638 10641 10643 10645 10647 10650
10467 10467 10468 10467 10467 10467 10467 10466 10465 10464 10464 10464 10465 10464 10464 10464 10463 10463 10463 10463 10463 10463 10463 10463 10463 10463 10463 10464 10464 10464 10464 10464 10465 10466 10467 10468 10470 10471 10473 10475 10476 10479 10481 10483 10486 10488 10491 10494 10498 10503 10508 10514 10520 10525 10531 10536 10541 10546 10551 10556 10561 10566 10571 10576 10580 10584 10588 10592 10595 10598 10601 10604 10607 10610 10612 10614 10617 10621 10625 10628 10632 10635 10637 10639 10642 10644
10467 10468 10468 10468 10468 10468 10468 10467 10467 10466 10466 10466 10467 10467 10466 10466 10466 10465 10465 10466 10466 10466 10466 10466 10466 10465 10465 10466 10466 10466 10466 10466 10466 10467 10467 10468 10469 10471 10472 10474 10476 10478 10480 10482 10485 10487 10490 10492 10495 10498 10503 10508 10514 10519 10525 10530 10535 10540 10544 10549 10554 10559 10564 10569 10573 10578 10581 10585 10588 10591 10594 10597 10600 10602 10604 10606 10610 10614 10619 10622 10625 10629 10632 10634 10637 10640
10467 10468 10468 10468 10469 10469 10469 10468 10468 10468 10468 10468 10468 10468 10468 10468 10468 10468 10468 10468 10468 10468 10468 10468 10468 10467 10467 10467 10467 10468 10468 10468 10468 10468 10469 10469 10470 10471 10472 10474 10475 10477 10479 10481 10483 10485 10488 10490 10493 10496 10499 10503 10508 10513 10518 10523 10528 10533 10537 10542 10546 10552 10556 10561 10565 10570 10574 10577 10581 10584 10587 10590 10593 10595 10597 10600 10603 10607 10612 10615 10619 10622 10625 10629 10632 10635
10467 10468 10468 10468 10468 10469 10469 10469 10469 10469 10469 10469 10470 10470 10470 10470 10470 10470 10470 10470 10470 10470 10470 10470 10469 10469 10469 10469 10469 10469 10469 10469 10469 10470 10470 10471 10471 10471 10472 10473 10475 10476 10477 10479 10481 10483 10485 10488 10490 10493 10496 10500 10504 10508 10513 10517 10522 10526 10530 10534 10539 10544 10548 10553 10557 10562 10566 10569 10572 10576 10579 10583 10586 10588 10590 10593 10596 10600 10604 10608 10612 10615 10618 10622 10626 10629
10467 10467 10467 10468 10468 10469 10469 10470 10470 10470 10470 10470 10470 10471 10471 10471 10471 10472 10471 10471 10471 10471 10471 10471 10471 10471 10471 10470 10470 10470 10470 10470 10470 10470 10471 10471 10472 10472 10472 10473 10475 10476 10477 10478 10479 10481 10483 10485 10488 10490 10493 10496 10499 10503 10507 10511 10516 10520 10523 10527 10531 10536 10541 10545 10550 10554 10557 10561 10564 10568 10572 10575 10579 10581 10583 10586 10589 10592 10596 10600 10604 10607 10610 10614 10618 10622
10466 10466 10467 10467 10468 10468 10469 10470 10470 10470 10470 10470 10471 10471 10471 10471 10472 10472 10472 10472 10472 10472 10472 10472 10472 10472 10472 10472 10472 10472 10471 10471 10471 10471 10471 10472 10472 10472 10473 10474 10475 10476 10477 10478 10479 10480 10481 10483 10485 10487 10490 10493 10495 10499 10502 10506 10509 10513 10516 10520 10524 10528 10533 10538 10542 10546 10550 10554 10557 10561 10564 10568 10571 10573 10576 10579 10581 10584 10588 10591 10595 10599 10602 10606 10610 10613
10465 10465 10466 10467 10468 10468 10469 10469 10470 10470 10471 10471 10471 10471 10471 10471 10472 10472 10472 10472 10472 10472 10472 10473 10473 10473 10473 10473 10473 10473 10472 10472 10471 10471 10471 10472 10472 10473 10474 10474 10475 10475 10477 10478 10479 10479 10480 10482 10483 10485 10487 10489 10491 10494 10497 10500 10503 10506 10509 10513 10516 10520 10525 10529 10534 10539 10543 10546 10550 10553 10556 10560 10563 10565 10568 10570 10573 10577 10580 10583 10586 10590 10593 10597 10600 10604
10463 10464 10465 10466 10467 10468 10469 10469 10469 10470 10470 10471 10471 10472 10472 10472 10472 10472 10472 10472 10473 10473 10473 10473 10473 10473 10473 10473 10473 10473 10473 10473 10472 10472 10472 10472 10472 10473 10473 10474 10475 10475 10476 10477 10478 10478 10479 10480 10481 10482 10484 10485 10487 10489 10492 10494 10497 10500 10503 10506 10509 10513 10516 10521 10525 10530 10534 10538 10541 10545 10548 10551 10554 10557 10560 10562 10565 10568 10572 10575 10577 10580 10584 10587 10590 10594
10461 10462 10464 10465 10466 10467 10468 10469 10469 10470 10471 10471 10472 10472 10472 10472 10472 10472 10472 10473 10473 10473 10473 10473 10473 10473 10473 10473 10473 10473 10473 10472 10472 10472 10472 10472 10472 10473 10473 10473 10474 10475 10475 10476 10476 10477 10478 10478 10479 10480 10481 10482 10484 10485 10487 10489 10491 10493 10496 10499 10502 10505 10509 10512 10516 10520 10524 10528 10532 10535 10539 10542 10545 10548 10551 10554 10556 10559 10562 10565 10568 10571 10574 10577 10581 10584
10460 10461 10462 10464 10465 10467 10468 10469 10469 10470 10470 10471 10472 10472 10472 10472 10472 10472 10473 10473 10473 10473 10473 10472 10472 10472 10472 10472 10472 10472 10472 10472 10472 10471 10471 10472 10472 10472 10472 10472 10473 10473 10473 10474 10475 10475 10476 10476 10477 10477 10478 10479 10480 10482 10483 10485 10486 10488 10491 10493 10496 10498 10501 10505 10508 10511 10515 10518 10522 10525 10529 10532 10535 10539 10542 10544 10547 10550 10553 10556 10559 10562 10565 10568 10572 10575
10460 10461 10462 10463 10465 10467 10468 10469 10470 10470 10470 10471 10471 10472 10472 10471 10471 10472 10472 10472 10472 10472 10472 10472 10472 10472 10471 10471 10471 10471 10471 10470 10470 10470 10470 10470 10470 10470 10470 10470 10470 10471 10471 10471 10472 10473 10474 10474 10475 10475 10475 10476 10476 10477 10478 10480 10481 10483 10485 10487 10489 10492 10494 10497 10500 10503 10506 10510 10513 10516 10519 10522 10526 10529 10532 10535 10538 10541 10544 10546 10549 10553 10556 10559 10563 10566
10461 10462 10463 10464 10466 10467 10468 10469 10469 10470 10470 10470 10470 10470 10470 10470 10470 10470 10470 10470 10470 10470 10470 10470 10470 10470 10470 10469 10469 10469 10469 10469 10469 10468 10468 10468 10468 10468 10468 10468 10468 10468 10468 10468 10469 10469 10470 10471 10472 10473 10473 10473 10473 10474 10474 10475 10476 10477 10479 10481 10482 10485 10487 10490 10492 10495 10498 10501 10504 10507 10510 10513 10517 10519 10522 10525 10528 10532 10535 10537 10540 10543 10546 10549 10552 10554
10464 10464 10464 10465 10466 10467 10468 10468 10469 10469 10469 10469 10469 10469 10469 10469 10469 10468 10468 10468 10468 10468 10468 10468 10468 10468 10467 10467 10467 10467 10466 10466 10466 10466 10466 10466 10466 10466 10465 10465 10465 10465 10465 10465 10465 10465 10466 10466 10467 10468 10469 10469 10469 10470 10470 10471 10471 10473 10474 10475 10476 10478 10480 10482 10484 10486 10489 10492 10495 10498 10501 10504 10507 10510 10512 10515 10519 10522 10525 10528 10530 10533 10534 10536 10539 10541
10467 10467 10467 10467 10468 10468 10469 10469 10469 10469 10469 10469 10468 10468 10468 10468 10467 10467 10467 10467 10467 10466 10466 10466 10465 10465 10465 10464 10464 10464 10464 10463 10463 10463 10463 10463 10462 10462 10462 10462 10461 10461 10461 10461 10461 10461 10461 10461 10462 10463 10463 10464 10464 10464 10465 10466 10466 10467 10468 10469 10470 10471 10473 10475 10477 10478 10480 10483 10485 10488 10492 10495 10498 10500 10502 10506 10509 10512 10515 10517 10520 10522 10523 10524 10526 10529
10471 10470 10470 10470 10470 10470 10470 10471 10470 10470 10470 10470 10469 10469 10469 10469 10468 10468 10467 10467 10466 10466 10465 10465 10464 10463 10463 10462 10461 10461 10461 10460 10459 10459 10459 10459 10458 10458 10458 10457 10457 10457 10456 10456 10456 10456 10456 10456 10456 10457 10457 10458 10458 10458 10458 10459 10460 10460 10461 10462 10463 10464 10466 10467 10469 10470 10472 10474 10476 10479 10482 10485 10487 10490 10492 10495 10498 10501 10504 10506 10508 10511 10512 10513 10514 10517
10474 10474 10474 10474 10474 10474 10474 10474 10473 10473 10473 10473 10473 10472 10472 10471 10471 10470 10469 10469 10468 10467 10466 10465 10464 10463 10463 10462 10461 10460 10459 10458 10457 10457 10456 10455 10455 10454 10453 10453 10452 10452 10451 10451 10450 10450 10450 10450 10450 10450 10451 10451 10451 10451 10452 10452 10453 10454 10454 10455 10455 10456 10457 10459 10460 10462 10464 10465 10468 10470 10472 10474 10477 10479 10481 10484 10486 10489 10491 10494 10496 10499 10500 10501 10502 10504
10478 10478 10478 10478 10477 10477 10477 10477 10477 10477 10476 10476 10475 10475 10474 10473 10472 10472 10471 10470 10470 10469 10468 10467 10466 10465 10464 10463 10461 10460 10459 10458 10457 10456 10455 10454 10453 10452 10451 10449 10448 10447 10446 10445 10445 10444 10443 10443 10443 10443 10443 10444 10444 10444 10445 10445 10446 10447 10447 10447 10448 10448 10448 10449 10451 10453 10455 10457 10459 10461 10463 10465 10467 10469 10471 10473 10475 10476 10478 10480 10483 10487 10489 10488 10488 10490
10482 10482 10481 10481 10481 10480 10480 10480 10479 10479 10478 10477 10476 10476 10475 10474 10474 10473 10472 10471 10471 10470 10469 10468 10467 10466 10465 10464 10462 10461 10460 10458 10457 10456 10454 10453 10452 10450 10449 10447 10446 10444 10443 10441 10440 10439 10437 10437 10436 10436 10436 10436 10436 10437 10437 10438 10438 10439 10440 10441 10441 10441 10441 10441 10441 10443 10445 10448 10449 10451 10453 10455 10457 10459 10461 10463 10464 10466 10467 10468 10470 10473 10476 10475 10474 10474